{"data":{"norad_id":57719,"epoch":"2026-09-20T22:59:35.833632Z","epoch_age_seconds":91516,"freshness":"FRESH","line1":"1 57719U 23129X   26263.95805363  .00000726  00000+0  35913-4 0  9993","line2":"2 57719  43.0018  95.3603 0001122 270.3232  89.7491 15.27580562170397","mean_motion":15.27580562,"eccentricity":0.0001122,"inclination_deg":43.0018,"raan_deg":95.3603,"arg_perigee_deg":270.3232,"mean_anomaly_deg":89.7491,"bstar":3.5913e-5,"rev_number":17039,"period_min":94.266714032723,"perigee_km":482.27758831883,"apogee_km":483.81723810115,"semimajor_km":6861.18441321,"source":"CELESTRAK","updated_at":"2026-09-21T09:00:33.677844Z"}}